Weather History for West Plains, MO

Change the Weather History Date:

Wednesday, September 26, 2012

  Actual Average Record
Temperature  
Mean Temperature 71 °F 64 °F  
Max Temperature 77 °F 77 °F 90 °F (1954)
Min Temperature 65 °F 52 °F 37 °F (1985)
Degree Days  
Heating Degree Days 0 3  
Month to date heating degree days 41 24  
Since 1 July heating degree days 41 25  
Cooling Degree Days 6 2  
Month to date cooling degree days 142 148  
Year to date cooling degree days 1711 1320  
Growing Degree Days 20 (Base 50)    
Moisture  
Dew Point 64 °F    
Average Humidity 83    
Maximum Humidity 93    
Minimum Humidity 73    
Precipitation  
Precipitation 0.44 in 0.14 in 3.51 in (1996)
Month to date precipitation 4.04 3.51  
Year to date precipitation 24.92 33.58  
Sea Level Pressure  
Sea Level Pressure 30.03 in    
Wind  
Wind Speed 3 mph (SSW)    
Max Wind Speed 26 mph    
Max Gust Speed 32 mph    
Visibility 6 miles    
Events Rain , Thunderstorm    
T = Trace of Precipitation, MM = Missing Value Source: NWS Daily Summary

Daily Weather History Graph

Daily Weather History Graph

Search for Another Location

Airport:

Trip Planner

Search our weather history database for the weather conditions in past years. The results will help you decide how hot, cold, wet, or windy it might be!

Date:

Astronomy

Sep. 26, 2012 Rise Set
Actual Time 6:59 AM CDT 6:57 PM CDT
Civil Twilight 6:33 AM CDT 7:23 PM CDT
Nautical Twilight 6:03 AM CDT 7:53 PM CDT
Astronomical Twilight 5:32 AM CDT 8:23 PM CDT
Moon 4:54 PM CDT (9/26) 3:30 AM CDT (9/26)
Length of Visible Light 12h 50m
Length of Day
11h 58m
Waxing Gibbous, 88% of the Moon is Illuminated
Sep 26
Waxing Gibbous
Sep 29
Full
Oct 8
Last Quarter
Oct 15
New
Oct 21
First Quarter

Hourly Weather History & Observations

Time (CDT) Temp. Dew Point Humidity Pressure Visibility Wind Dir Wind Speed Gust Speed Precip Events Conditions
12:53 AM 72.0 °F 63.0 °F 73% 29.94 in 10.0 mi South 6.9 mph - N/A   Clear
1:53 AM 71.1 °F 63.0 °F 75% 29.96 in 10.0 mi Calm Calm - N/A   Mostly Cloudy
2:53 AM 66.9 °F 63.0 °F 87% 29.96 in 8.0 mi Calm Calm - 0.00 in   Scattered Clouds
3:53 AM 66.9 °F 63.0 °F 87% 29.94 in 7.0 mi SSE 3.5 mph - N/A Thunderstorm Thunderstorm
4:33 AM 68.0 °F 62.6 °F 83% 29.98 in 8.0 mi SSE 4.6 mph - N/A   Partly Cloudy
4:53 AM 68.0 °F 64.0 °F 87% 29.95 in 8.0 mi South 4.6 mph - N/A   Clear
5:18 AM 68.0 °F 64.4 °F 88% 29.98 in 4.0 mi SSE 5.8 mph - 0.03 in Rain , Thunderstorm Rain
5:53 AM 66.9 °F 64.0 °F 90% 29.95 in 6.0 mi South 3.5 mph - 0.03 in Thunderstorm Overcast
6:17 AM 68.0 °F 64.4 °F 88% 29.99 in 7.0 mi Calm Calm - N/A Thunderstorm Mostly Cloudy
6:38 AM 68.0 °F 64.4 °F 88% 29.99 in 7.0 mi SSW 4.6 mph - 0.00 in   Mostly Cloudy
6:53 AM 69.1 °F 64.9 °F 87% 29.97 in 7.0 mi SW 3.5 mph - 0.00 in   Partly Cloudy
7:53 AM 69.1 °F 64.9 °F 87% 29.98 in 5.0 mi SSW 3.5 mph - N/A   Mostly Cloudy
8:01 AM 69.8 °F 66.2 °F 88% 30.02 in 6.0 mi NNW 9.2 mph - N/A Thunderstorm Mostly Cloudy
8:15 AM 69.8 °F 64.4 °F 83% 30.02 in 2.5 mi East 8.1 mph - 0.05 in Rain , Thunderstorm Heavy Thunderstorms and Rain
8:25 AM 69.8 °F 64.4 °F 83% 30.03 in 4.0 mi WNW 8.1 mph - 0.06 in Rain , Thunderstorm Light Thunderstorms and Rain
8:36 AM 66.2 °F 62.6 °F 88% 30.05 in 2.5 mi NW 3.5 mph - 0.09 in Rain , Thunderstorm Thunderstorms and Rain
8:53 AM 66.0 °F 62.1 °F 87% 30.01 in 6.0 mi North 9.2 mph - 0.10 in Rain , Thunderstorm Light Thunderstorms and Rain
9:25 AM 64.4 °F 62.6 °F 94% 30.04 in 10.0 mi East 3.5 mph - 0.00 in   Mostly Cloudy
9:33 AM 66.2 °F 62.6 °F 88% 30.04 in 10.0 mi East 4.6 mph - 0.00 in   Mostly Cloudy
9:53 AM 66.9 °F 64.0 °F 90% 30.02 in 10.0 mi ESE 4.6 mph - 0.00 in   Partly Cloudy
11:35 AM 71.6 °F 66.2 °F 83% 30.05 in 8.0 mi Variable 5.8 mph - N/A Thunderstorm Partly Cloudy
11:53 AM 72.0 °F 68.0 °F 87% 30.01 in 8.0 mi SSE 4.6 mph - N/A Thunderstorm Partly Cloudy
12:05 PM 73.4 °F 68.0 °F 83% 30.04 in 7.0 mi SSE 5.8 mph - N/A   Scattered Clouds
12:37 PM 73.4 °F 68.0 °F 83% 30.06 in 6.0 mi SSW 4.6 mph - N/A   Haze
12:53 PM 73.0 °F 68.0 °F 84% 30.02 in 7.0 mi SSW 5.8 mph - N/A   Mostly Cloudy
1:53 PM 77.0 °F 68.0 °F 74% 30.00 in 10.0 mi SSW 11.5 mph - N/A   Partly Cloudy
2:17 PM 75.2 °F 66.2 °F 73% 30.06 in 10.0 mi NW 19.6 mph 31.1 mph N/A Thunderstorm Mostly Cloudy
2:33 PM 66.2 °F 62.6 °F 88% 30.06 in 1.0 mi WNW 11.5 mph 19.6 mph 0.16 in Rain , Thunderstorm Heavy Thunderstorms and Rain
2:36 PM 66.2 °F 62.6 °F 88% 30.06 in 0.8 mi WNW 8.1 mph 18.4 mph 0.20 in Rain , Thunderstorm Heavy Thunderstorms and Rain
2:43 PM 64.4 °F 62.6 °F 94% 30.05 in 1.0 mi West 6.9 mph - 0.24 in Rain , Thunderstorm Thunderstorms and Rain
2:47 PM 64.4 °F 62.6 °F 94% 30.05 in 2.0 mi West 6.9 mph - 0.25 in Rain , Thunderstorm Light Thunderstorms and Rain
2:53 PM 64.9 °F 62.1 °F 90% 30.02 in 4.0 mi West 5.8 mph - 0.25 in Rain , Thunderstorm Light Thunderstorms and Rain
3:33 PM 64.4 °F 62.6 °F 94% 30.04 in 7.0 mi Calm Calm - 0.03 in Rain Light Rain
3:53 PM 66.0 °F 64.0 °F 93% 30.03 in 9.0 mi South 3.5 mph - 0.03 in   Mostly Cloudy
5:53 PM 69.1 °F 64.9 °F 87% 30.03 in 10.0 mi Calm Calm - N/A   Scattered Clouds
6:53 PM 68.0 °F 64.9 °F 90% 30.04 in 9.0 mi Calm Calm - N/A   Mostly Cloudy
7:53 PM 66.9 °F 64.9 °F 93% 30.07 in 6.0 mi Calm Calm - N/A   Overcast
8:53 PM 66.9 °F 64.9 °F 93% 30.07 in 5.0 mi Calm Calm - N/A   Mostly Cloudy
9:51 PM 66.2 °F 64.4 °F 94% 30.11 in - NNW 3.5 mph - N/A   Overcast
9:53 PM 66.0 °F 64.9 °F 96% 30.08 in - Calm Calm - N/A   Overcast
10:19 PM 66.2 °F 64.4 °F 94% 30.10 in - Calm Calm - N/A Thunderstorm Thunderstorm
10:29 PM 66.2 °F 64.4 °F 94% 30.11 in - NE 3.5 mph - N/A Thunderstorm Thunderstorm
10:36 PM 66.2 °F 64.4 °F 94% 30.10 in - Calm Calm - N/A   Overcast
10:53 PM 66.0 °F 64.9 °F 96% 30.08 in - Calm Calm - N/A   Overcast
11:20 PM 66.2 °F 64.4 °F 94% 30.12 in - Calm Calm - 0.01 in Thunderstorm Thunderstorm
11:48 PM 66.2 °F 64.4 °F 94% 30.10 in - Calm Calm - 0.02 in Rain , Thunderstorm Light Thunderstorms and Rain
11:53 PM 66.9 °F 64.9 °F 93% 30.08 in - Calm Calm - 0.02 in Rain , Thunderstorm Light Thunderstorms and Rain